TimeCST,TemperatureF,Dew PointF,Humidity,Sea Level PressureIn,VisibilityMPH,Wind Direction,Wind SpeedMPH,Gust SpeedMPH,PrecipitationIn,Events,Conditions,WindDirDegrees,DateUTC
12:53 AM,45.0,42.1,90,30.03,10.0,East,5.8,-,0.00,,Mostly Cloudy,80,2011-12-04 06:53:00
1:53 AM,44.1,39.9,85,30.03,10.0,ENE,8.1,-,0.01,,Overcast,60,2011-12-04 07:53:00
2:53 AM,43.0,39.0,86,30.03,10.0,NNE,8.1,-,N/A,,Overcast,30,2011-12-04 08:53:00
3:17 AM,42.8,39.2,87,30.09,10.0,NNE,6.9,-,N/A,,Overcast,30,2011-12-04 09:17:00
3:44 AM,42.8,37.4,81,30.09,10.0,NE,9.2,-,N/A,,Overcast,40,2011-12-04 09:44:00
3:53 AM,42.1,37.9,85,30.03,10.0,NNE,5.8,-,N/A,,Overcast,30,2011-12-04 09:53:00
4:17 AM,41.0,37.4,87,30.10,10.0,NNE,6.9,-,N/A,,Overcast,20,2011-12-04 10:17:00
4:53 AM,39.9,36.0,86,30.04,10.0,North,8.1,-,N/A,,Overcast,350,2011-12-04 10:53:00
5:53 AM,37.9,33.1,83,30.06,10.0,North,10.4,-,N/A,,Overcast,360,2011-12-04 11:53:00
6:53 AM,37.0,30.9,79,30.08,10.0,North,8.1,-,N/A,,Overcast,360,2011-12-04 12:53:00
7:53 AM,37.0,30.9,79,30.11,10.0,North,5.8,-,N/A,,Overcast,360,2011-12-04 13:53:00
8:53 AM,37.0,30.9,79,30.12,10.0,NNW,8.1,-,N/A,,Overcast,340,2011-12-04 14:53:00
9:53 AM,37.9,30.0,73,30.12,10.0,Calm,Calm,-,N/A,,Overcast,0,2011-12-04 15:53:00
10:00 AM,37.4,30.2,75,30.16,10.0,North,4.6,-,N/A,,Overcast,350,2011-12-04 16:00:00
10:53 AM,39.9,32.0,73,30.10,10.0,North,3.5,-,N/A,,Overcast,360,2011-12-04 16:53:00
11:53 AM,41.0,33.1,73,30.07,10.0,NE,4.6,-,N/A,,Overcast,40,2011-12-04 17:53:00
12:53 PM,41.0,34.0,76,30.04,10.0,Calm,Calm,-,N/A,,Overcast,0,2011-12-04 18:53:00
1:48 PM,42.8,35.6,76,30.03,10.0,East,3.5,-,N/A,,Overcast,90,2011-12-04 19:48:00
1:53 PM,43.0,35.1,74,29.98,10.0,ESE,5.8,-,N/A,,Overcast,110,2011-12-04 19:53:00
2:32 PM,44.6,35.6,71,30.01,10.0,East,8.1,-,N/A,,Overcast,100,2011-12-04 20:32:00
2:53 PM,44.1,36.0,73,29.96,10.0,Calm,Calm,-,N/A,,Overcast,0,2011-12-04 20:53:00
3:53 PM,46.0,36.0,68,29.94,10.0,NNE,6.9,-,N/A,,Overcast,30,2011-12-04 21:53:00
4:53 PM,46.0,35.1,66,29.95,10.0,ENE,8.1,-,N/A,,Overcast,60,2011-12-04 22:53:00
5:20 PM,46.4,35.6,66,29.98,10.0,ENE,10.4,-,N/A,,Overcast,70,2011-12-04 23:20:00
5:53 PM,46.0,34.0,63,29.91,10.0,East,13.8,-,N/A,,Mostly Cloudy,90,2011-12-04 23:53:00
6:53 PM,46.9,35.1,63,29.91,10.0,East,13.8,-,N/A,,Overcast,100,2011-12-05 00:53:00
7:53 PM,46.0,37.9,73,29.87,10.0,East,23.0,-,0.00,,Overcast,90,2011-12-05 01:53:00
9:12 PM,42.8,39.2,87,30.04,2.5,Variable,3.5,-,0.13,Rain,Heavy Rain,0,2011-12-05 03:12:00
9:25 PM,42.8,39.2,87,30.03,3.0,NW,15.0,18.4,0.21,Rain,Heavy Rain,310,2011-12-05 03:25:00
9:39 PM,39.2,37.4,93,30.05,4.0,WNW,15.0,-,0.24,Rain,Rain,300,2011-12-05 03:39:00
9:53 PM,39.0,37.9,96,30.05,4.0,WNW,11.5,-,0.27,Rain,Rain,290,2011-12-05 03:53:00
10:01 PM,39.2,37.4,93,30.08,4.0,WNW,13.8,-,0.03,Rain,Rain,300,2011-12-05 04:01:00
10:10 PM,39.2,39.2,100,30.08,4.0,WNW,11.5,19.6,0.06,Rain,Rain,300,2011-12-05 04:10:00
10:39 PM,39.2,37.4,93,30.09,6.0,NW,11.5,-,0.17,Rain,Rain,310,2011-12-05 04:39:00
10:53 PM,39.9,37.0,89,30.07,7.0,NW,10.4,-,0.18,Rain,Rain,320,2011-12-05 04:53:00
11:16 PM,39.2,37.4,93,30.10,7.0,WNW,8.1,-,0.02,Rain,Light Rain,300,2011-12-05 05:16:00
11:29 PM,39.2,37.4,93,30.11,9.0,NW,13.8,18.4,0.03,Rain,Light Rain,320,2011-12-05 05:29:00
11:53 PM,36.0,35.1,97,30.08,9.0,NW,13.8,-,0.04,Rain,Light Rain,320,2011-12-05 05:53:00